Regional Weather Roundup
Issued by NWS

Home | Current Version | Previous Version | Graphics & Text | Print | Product List | Glossary On
Versions: 1 2 3 4 5 6 7 8 9 10 11 12 13 14 15 16 17 18 19 20 21 22 23 24 25 26 27 28 29 30 31 32 33 34 35 36 37 38 39 40 41 42 43 44 45 46 47 48 49 50
917
ASUS45 KSLC 101610
RWRUT

UTAH REGIONAL WEATHER ROUNDUP
NATIONAL WEATHER SERVICE SALT LAKE CITY UT
900 AM MST SAT DEC 10 2016

UTZ001>011-023>025-101700-

NORTHERN UTAH

CITY           SKY/WX    TMP DP  RH WIND       PRES   REMARKS
BRIGHAM CITY     N/A     39  36  86 SW7       29.94S WCI  34
HILL AFB       LGT RAIN  37  35  92 SE13      29.94F FOG     WCI  29
LOGAN          LGT RAIN  39  36  89 S12       29.91S WCI  32
OGDEN          RAIN      39  37  92 SE10      29.94F FOG     WCI  32
SALT LAKE CITY LGT RAIN  41  39  93 E7        29.94F FOG
WENDOVER       CLOUDY    30  25  80 W3        29.93S
HEBER CITY     LGT SNOW  36  32  87 CALM      29.96F

$$

UTZ011>015-024>027-101700-

CENTRAL/NORTHEAST UTAH

CITY           SKY/WX    TMP DP  RH WIND       PRES   REMARKS
PROVO AIRPORT  CLOUDY    39  36  87 S6        29.97F WCI  35
MOAB/CANYONLAN PTSUNNY   24  14  65 CALM      30.12F
DELTA          CLOUDY    43  34  70 S28G33    29.98S
PRICE          CLOUDY    26  17  68 NE3       30.09S
RICHFIELD      CLOUDY    46  27  46 NW6G13    30.03R
ROOSEVELT      CLOUDY    21  18  86 CALM      30.07F
VERNAL         CLOUDY    22  16  78 CALM      30.04F

$$

UTZ013>016-019>022-027-101700-

SOUTHERN UTAH

CITY           SKY/WX    TMP DP  RH WIND       PRES   REMARKS
BRYCE CANYON   PTSUNNY   21  19  92 SW3       30.14R
CEDAR CITY     PTSUNNY   37  32  82 SE7       30.09F WCI  32
MILFORD        CLOUDY    42  33  70 S30G38    30.03F
ST GEORGE      CLOUDY    41  27  56 CALM      30.18S
HANKSVILLE     PTSUNNY   21  10  63 CALM      30.17R
BLANDING       SUNNY     33  25  71 W5        30.26R WCI  29

$$

REGIONAL REPORTS     COLORADO/ARIZONA

CITY           SKY/WX    TMP DP  RH WIND       PRES   REMARKS
CRAIG, CO      CLOUDY    31  24  75 CALM      29.98F
GRAND JUNCTION CLOUDY    26  22  84 CALM      30.12F
RIFLE, CO      CLOUDY    24  21  88 CALM      30.12S
MONTROSE, CO   CLOUDY    29  25  85 CALM      30.14S
CORTEZ, CO     CLOUDY    31  27  85 CALM      30.18F
COLORADO CITY  CLOUDY    37  36  93 CALM      30.20S
PAGE, AZ       CLOUDY    36  17  46 W3        30.17S
GRAND CANYON   MOSUNNY   28  26  92 E3        30.22R
KINGMAN, AZ    MOSUNNY   49  36  61 SE6       30.14S
FLAGSTAFF, AZ  MOSUNNY   30  29  96 CALM      30.23S

$$

REGIONAL REPORTS    NEVADA/IDAHO/WYOMING

CITY           SKY/WX    TMP DP  RH WIND       PRES   REMARKS
LAS VEGAS, NV  PTSUNNY   45  19  35 CALM      30.13S
ELY, NY        CLOUDY    40  27  59 S18G25    30.01F WCI  31
ELKO, NV       RAIN      36  34  92 CALM      29.94R FOG
POCATELLO, ID  LGT RAIN  35  33  92 SW14      29.84F WCI  26
BURLEY, ID     LGT RAIN  37  34  89 S18G26    29.83F WCI  27
FORT BRIDGER,  CLOUDY    37  36  97 W22G30    29.91F WCI  25
EVANSTON, WY   SNOW      32  30  92 SW20      29.91F VSB 1/4 WCI  20
ROCK SPRINGS,  CLOUDY    34  28  79 SW12      29.90F WCI  25
KEMMERER, WY     N/A     32  32 100 SW22      29.88F WCI  19

$$




USA.gov is the U.S. government's official web portal to all federal, state and local government web resources and services.